Regional Weather Roundup
Issued by NWS Kansas City/Pleasant Hill, MO

Home | Current Version | Previous Version | Graphics & Text | Print | Product List | Glossary Off
Versions: 1 2 3 4 5 6 7 8 9 10 11 12 13 14 15 16 17 18 19 20 21 22 23 24 25 26 27 28 29 30 31 32 33 34 35 36 37 38 39 40 41 42 43 44 45 46 47 48 49 50

000
ASUS43 KEAX 301311
RWREAX

WEATHER ROUNDUP FOR EASTERN KANSAS AND NORTHWEST MISSOURI
NATIONAL WEATHER SERVICE KANSAS CITY/PLEASANT HILL MO
800 AM CDT TUE JUN 30 2015

KSZ040-057-103>105-MOZ028-029-037-043-301400-
...KANSAS CITY METROPOLITAN AREA...

CITY           SKY/WX    TMP DP  RH WIND       PRES   REMARKS
K.C. INTL      CLOUDY    70  66  87 W5        29.95R
K.C. DOWNTOWN  MOSUNNY   73  67  81 SW5       29.94R
LEES SUMMIT    MOSUNNY   70  64  81 W6        29.95R
OLATHE - IXD   PTSUNNY   71  63  75 W5        29.96R
OLATHE - OJC   PTSUNNY   71  62  73 NW5       29.95R
LAWRENCE       MOSUNNY   68  65  90 W3        29.95R

$$

MOZ001>008-011>017-020>025-030>033-038>040-044>046-053-054-301400-
...NORTHERN AND CENTRAL MISSOURI...

CITY           SKY/WX    TMP DP  RH WIND       PRES   REMARKS
ST. JOSEPH     SUNNY     69  68  96 CALM      29.95R FOG
MOSBY          MOSUNNY   66  66 100 CALM      29.94R
HARRISONVILLE  MOSUNNY   72  66  83 NW3       29.98R
WARRENSBURG    MOSUNNY   70  63  78 W3        29.93S
WHITEMAN AFB   PTSUNNY   72  66  81 W3        29.93R
CLINTON        SUNNY     73  66  78 W6        29.95R
SEDALIA        SUNNY     72  66  81 W3        29.94S
WARSAW         FAIR      72  68  88 CALM      29.96R
CHILLICOTHE      N/A     71  67  87 CALM      29.92F
KIRKSVILLE     SUNNY     68  63  84 W6        29.91S

$$

MOZ041-047>049-056>058-063>065-088>090-097-301400-
...EASTERN AND SOUTHERN MISSOURI...

CITY           SKY/WX    TMP DP  RH WIND       PRES   REMARKS
ST. LOUIS INTL SUNNY     74  66  76 W5        29.90S
SPIRIT OF STL  SUNNY     71  69  93 CALM      29.89S
COLUMBIA       SUNNY     70  67  90 SW3       29.93S
JEFFERSON CITY SUNNY     69  67  93 CALM      29.92S
MEXICO         SUNNY    N/A N/A N/A W6        29.91S
ROLLA          SUNNY     68  66  93 SW3       29.93F
OSAGE BEACH    PTSUNNY   72  64  78 W5        29.95S
SPRINGFIELD    SUNNY     71  62  73 SW8       29.98S
BRANSON        CLOUDY    68  64  88 CALM      30.00S
NEVADA         MOSUNNY   70  64  83 SW3       29.97S
JOPLIN         MOSUNNY   72  66  81 SW5       29.99R
WEST PLAINS    SUNNY     70  63  78 W6        29.99R
MALDEN         SUNNY     75  68  78 W6        29.93R

$$

IAZ060-094-KSZ022-034>040-054-083-096-NEZ052-066-093-301400-
...KANSAS...SOUTHEAST NEBRASKA AND IOWA...

CITY           SKY/WX    TMP DP  RH WIND       PRES   REMARKS
TOPEKA         SUNNY     69  65  86 CALM      29.95S
MANHATTAN      SUNNY     69  64  84 S3        29.97R
EMPORIA        PTSUNNY   69  63  81 CALM      29.97S
CHANUTE        MOSUNNY   68  65  90 CALM      29.97S
WICHITA        PTSUNNY   73  64  73 SW7       29.99R
OMAHA          CLOUDY    70  64  81 N6        29.95R
LINCOLN        MOSUNNY   71  63  75 CALM      29.95S HAZE
FALLS CITY     MOSUNNY   68  64  87 W3        29.94R
LAMONI         PTSUNNY   69  64  84 W7        29.93R
DES MOINES     CLOUDY    69  62  78 NW9       29.91R HAZE

$$




USA.gov is the U.S. government's official web portal to all federal, state and local government web resources and services.